Weather History for KHWO - February, 2014

Change the Weather History Date:

Saturday, February 8, 2014

  Actual Average (KFLL) Record (KFLL)
Temperature  
Mean Temperature 75 °F 70 °F  
Max Temperature 86 °F 77 °F 89 °F (1955)
Min Temperature 64 °F 64 °F 38 °F (1924)
Degree Days  
Heating Degree Days 0 1  
Month to date heating degree days 8  
Since 1 July heating degree days 88  
Cooling Degree Days 10 6  
Month to date cooling degree days 48  
Year to date cooling degree days 218  
Growing Degree Days 25 (Base 50)    
Moisture  
Dew Point 67 °F    
Average Humidity 87    
Maximum Humidity 100    
Minimum Humidity 44    
Precipitation  
Precipitation 0.00 in 0.11 in 1.85 in (1939)
Month to date precipitation 0.86  
Year to date precipitation 4.49  
Snow  
Snow 0.00 in - - ()
Month to date snowfall  
Since 1 July snowfall  
Snow Depth -    
Sea Level Pressure  
Sea Level Pressure 30.08 in    
Wind  
Wind Speed 4 mph (NW)    
Max Wind Speed 12 mph    
Max Gust Speed 17 mph    
Visibility 7 miles    
Events Fog    
T = Trace of Precipitation, MM = Missing Value Source: NWS Daily Summary

Daily Weather History Graph

Daily Weather History Graph

Search for Another Location

Airport or City:

Trip Planner

Search our weather history database for the weather conditions in past years. The results will help you decide how hot, cold, wet, or windy it might be!

Date:

Astronomy

Feb. 08, 2014 Rise Set
Actual Time 7:01 AM EST 6:09 PM EST
Civil Twilight 6:37 AM EST 6:33 PM EST
Nautical Twilight 6:10 AM EST 7:00 PM EST
Astronomical Twilight 5:42 AM EST 7:27 PM EST
Moon 1:10 PM EST (2/8) 2:04 AM EST (2/8)
Length of Visible Light 11h 55m
Length of Day
11h 08m
Waxing Gibbous, 68% of the Moon is Illuminated
Feb 8
Waxing Gibbous
Feb 14
Full
Feb 22
Last Quarter
Mar 1
New
Mar 8
First Quarter

Hourly Weather History & Observations

Time (EST) Temp. Heat Index Dew Point Humidity Pressure Visibility Wind Dir Wind Speed Gust Speed Precip Events Conditions
12:53 AM 69.1 °F - 66.9 °F 93% 30.11 in 10.0 mi North 3.5 mph - N/A   Clear
1:53 AM 68.0 °F - 68.0 °F 100% 30.10 in 10.0 mi North 3.5 mph - N/A   Clear
2:53 AM 68.0 °F - 68.0 °F 100% 30.09 in 7.0 mi Calm Calm - N/A   Clear
3:32 AM 66.9 °F - 66.9 °F 100% 30.08 in 2.0 mi Calm Calm - N/A   Clear
3:49 AM 66.2 °F - 66.2 °F 100% 30.08 in 1.0 mi NW 3.5 mph - N/A   Clear
3:53 AM 66.0 °F - 66.0 °F 100% 30.08 in 1.2 mi NW 3.5 mph - N/A   Clear
4:00 AM 66.0 °F - 66.0 °F 100% 30.08 in 3.0 mi NW 4.6 mph - N/A   Clear
4:53 AM 66.0 °F - 66.0 °F 100% 30.08 in 10.0 mi NW 4.6 mph - N/A   Clear
5:53 AM 66.0 °F - 66.0 °F 100% 30.09 in 9.0 mi NW 3.5 mph - N/A   Clear
6:35 AM 66.0 °F - 66.0 °F 100% 30.09 in 2.5 mi Calm Calm - N/A   Clear
6:43 AM 64.9 °F - 64.9 °F 100% 30.09 in 5.0 mi NW 3.5 mph - N/A   Clear
6:47 AM 64.4 °F - 64.4 °F 100% 30.09 in 2.5 mi NNW 3.5 mph - N/A   Partly Cloudy
6:50 AM 64.4 °F - 64.4 °F 100% 30.09 in 1.0 mi NNW 3.5 mph - N/A   Mist
6:53 AM 64.9 °F - 64.9 °F 100% 30.09 in 0.8 mi NNW 3.5 mph - N/A   Mist
7:07 AM 64.9 °F - 64.9 °F 100% 30.09 in 0.8 mi Calm Calm - N/A   Mist
7:46 AM 64.9 °F - 64.9 °F 100% 30.09 in 0.5 mi Calm Calm - N/A Fog Fog
7:53 AM 64.9 °F - 64.9 °F 100% 30.09 in 0.8 mi Calm Calm - N/A   Mist
8:03 AM 64.9 °F - 64.9 °F 100% 30.09 in 3.0 mi NW 3.5 mph - N/A   Scattered Clouds
8:53 AM 68.0 °F - 68.0 °F 100% 30.11 in 10.0 mi Calm Calm - N/A   Clear
9:53 AM 77.0 °F - 71.1 °F 82% 30.11 in 10.0 mi SSE 3.5 mph - N/A   Clear
10:53 AM 80.1 °F 82.9 °F 69.1 °F 69% 30.10 in 10.0 mi South 10.4 mph - N/A   Partly Cloudy
11:53 AM 81.0 °F 83.8 °F 68.0 °F 65% 30.08 in 10.0 mi SW 8.1 mph - N/A   Mostly Cloudy
12:53 PM 82.0 °F 84.5 °F 66.9 °F 60% 30.05 in 10.0 mi West 8.1 mph - N/A   Scattered Clouds
1:53 PM 84.9 °F 86.1 °F 64.0 °F 49% 30.02 in 10.0 mi WSW 6.9 mph 17.3 mph N/A   Partly Cloudy
2:53 PM 86.0 °F 86.8 °F 63.0 °F 46% 30.01 in 10.0 mi West 11.5 mph - N/A   Scattered Clouds
3:53 PM 84.0 °F 85.8 °F 64.9 °F 53% 30.01 in 10.0 mi WNW 11.5 mph - N/A   Scattered Clouds
4:53 PM 84.9 °F 85.0 °F 61.0 °F 44% 30.01 in 10.0 mi NW 3.5 mph - N/A   Partly Cloudy
5:53 PM 78.1 °F - 70.0 °F 76% 30.03 in 10.0 mi SE 8.1 mph - N/A   Scattered Clouds
6:53 PM 75.9 °F - 71.1 °F 85% 30.04 in 10.0 mi ESE 6.9 mph - N/A   Scattered Clouds
7:53 PM 75.9 °F - 71.1 °F 85% 30.05 in 10.0 mi Calm Calm - N/A   Mostly Cloudy
8:53 PM 73.9 °F - 68.0 °F 82% 30.06 in 10.0 mi NW 5.8 mph - N/A   Partly Cloudy
9:53 PM 72.0 °F - 69.1 °F 91% 30.09 in 10.0 mi North 11.5 mph - N/A   Scattered Clouds
10:07 PM 71.1 °F - 69.1 °F 93% 30.09 in 10.0 mi North 10.4 mph - N/A   Mostly Cloudy
10:53 PM 70.0 °F - 66.9 °F 90% 30.09 in 10.0 mi North 9.2 mph - N/A   Overcast
11:17 PM 69.1 °F - 66.0 °F 90% 30.08 in 10.0 mi North 6.9 mph - N/A   Scattered Clouds
11:53 PM 69.1 °F - 66.0 °F 90% 30.09 in 10.0 mi NNW 8.1 mph - N/A   Scattered Clouds